Time,TemperatureF,DewpointF,PressureIn,WindDirection,WindDirectionDegrees,WindSpeedMPH,WindSpeedGustMPH,Humidity,HourlyPrecipIn,Conditions,Clouds,dailyrainin,SoftwareType,DateUTC
2013-01-05 00:09:00,17.2,9.1,30.15,NNW,337,0.0,0.0,70,0.00,,,0.00,open2300-1.11,2013-01-05 06:09:00,
2013-01-05 00:17:00,16.7,8.9,30.13,NNW,337,0.0,0.0,71,0.00,,,0.00,open2300-1.11,2013-01-05 06:17:00,
2013-01-05 00:27:00,16.3,8.5,30.14,NNW,337,0.0,0.0,71,0.00,,,0.00,open2300-1.11,2013-01-05 06:27:00,
2013-01-05 00:37:00,16.3,8.5,30.13,NNW,337,0.0,0.0,71,0.00,,,0.00,open2300-1.11,2013-01-05 06:37:00,
2013-01-05 00:47:00,16.2,8.4,30.13,NNW,337,0.0,0.0,71,0.00,,,0.00,open2300-1.11,2013-01-05 06:47:00,
2013-01-05 00:57:00,15.8,8.0,30.13,NNW,337,0.0,0.0,71,0.00,,,0.00,open2300-1.11,2013-01-05 06:57:00,
2013-01-05 01:07:00,15.8,8.0,30.12,NNW,337,0.0,0.0,71,0.00,,,0.00,open2300-1.11,2013-01-05 07:07:00,
2013-01-05 01:17:00,16.0,8.2,30.11,NNW,337,0.0,0.0,71,0.00,,,0.00,open2300-1.11,2013-01-05 07:17:00,
2013-01-05 01:27:00,15.6,8.1,30.11,NNW,337,0.0,0.0,72,0.00,,,0.00,open2300-1.11,2013-01-05 07:27:00,
2013-01-05 01:37:00,15.4,8.0,30.10,NNW,337,0.0,0.0,72,0.00,,,0.00,open2300-1.11,2013-01-05 07:37:00,
2013-01-05 01:47:00,15.1,7.7,30.09,NNW,337,0.0,0.0,72,0.00,,,0.00,open2300-1.11,2013-01-05 07:47:00,
2013-01-05 01:57:00,14.4,7.0,30.09,NNW,337,0.0,0.0,72,0.00,,,0.00,open2300-1.11,2013-01-05 07:57:00,
2013-01-05 02:07:00,13.8,6.5,30.09,NNW,337,0.0,0.0,72,0.00,,,0.00,open2300-1.11,2013-01-05 08:07:00,
2013-01-05 02:17:00,13.6,6.3,30.10,NNW,337,0.0,0.0,72,0.00,,,0.00,open2300-1.11,2013-01-05 08:17:00,
2013-01-05 02:27:00,13.8,6.5,30.10,NNW,337,0.0,0.0,72,0.00,,,0.00,open2300-1.11,2013-01-05 08:27:00,
2013-01-05 02:37:00,13.8,6.5,30.10,NNW,337,0.0,0.0,72,0.00,,,0.00,open2300-1.11,2013-01-05 08:37:00,
2013-01-05 02:47:00,14.2,6.8,30.13,NNW,337,0.0,0.0,72,0.00,,,0.00,open2300-1.11,2013-01-05 08:47:00,
2013-01-05 02:57:00,13.8,6.2,30.13,NNW,337,0.0,0.0,71,0.00,,,0.00,open2300-1.11,2013-01-05 08:57:00,
2013-01-05 03:07:00,12.9,5.6,30.12,NNW,337,0.0,0.0,72,0.00,,,0.00,open2300-1.11,2013-01-05 09:07:00,
2013-01-05 03:17:00,12.4,5.0,30.12,NNW,337,0.0,0.0,72,0.00,,,0.00,open2300-1.11,2013-01-05 09:17:00,
2013-01-05 03:27:00,12.6,5.2,30.11,NNW,337,0.0,0.0,72,0.00,,,0.00,open2300-1.11,2013-01-05 09:27:00,
2013-01-05 03:37:00,12.7,5.4,30.11,NNW,337,0.0,0.0,72,0.00,,,0.00,open2300-1.11,2013-01-05 09:37:00,
2013-01-05 03:47:00,12.7,5.4,30.11,NNW,337,0.0,0.0,72,0.00,,,0.00,open2300-1.11,2013-01-05 09:47:00,
2013-01-05 03:57:00,12.9,5.6,30.11,NNW,337,0.0,0.0,72,0.00,,,0.00,open2300-1.11,2013-01-05 09:57:00,
2013-01-05 04:07:00,13.1,6.0,30.10,NNW,337,0.0,0.0,73,0.00,,,0.00,open2300-1.11,2013-01-05 10:07:00,
2013-01-05 04:27:00,13.1,6.0,30.07,NNW,337,0.0,0.0,73,0.00,,,0.00,open2300-1.11,2013-01-05 10:27:00,
2013-01-05 04:37:00,13.3,6.2,30.08,NNW,337,0.0,0.0,73,0.00,,,0.00,open2300-1.11,2013-01-05 10:37:00,
2013-01-05 04:47:00,13.3,6.2,30.07,NNW,337,0.0,0.0,73,0.00,,,0.00,open2300-1.11,2013-01-05 10:47:00,
2013-01-05 04:57:00,13.5,6.4,30.07,NNW,337,0.0,0.0,73,0.00,,,0.00,open2300-1.11,2013-01-05 10:57:00,
2013-01-05 05:07:00,13.6,6.6,30.08,NNW,337,0.0,0.0,73,0.00,,,0.00,open2300-1.11,2013-01-05 11:07:00,
2013-01-05 05:17:00,13.3,6.2,30.06,NNW,337,0.0,0.0,73,0.00,,,0.00,open2300-1.11,2013-01-05 11:17:00,
2013-01-05 05:27:00,12.7,5.4,30.06,NNW,337,0.0,0.0,72,0.00,,,0.00,open2300-1.11,2013-01-05 11:27:00,
2013-01-05 05:37:00,12.4,5.0,30.05,NNW,337,0.0,0.0,72,0.00,,,0.00,open2300-1.11,2013-01-05 11:37:00,
2013-01-05 05:47:00,12.6,5.5,30.04,NNW,337,0.0,0.0,73,0.00,,,0.00,open2300-1.11,2013-01-05 11:47:00,
2013-01-05 05:57:00,11.8,4.8,30.04,NNW,337,0.0,0.0,73,0.00,,,0.00,open2300-1.11,2013-01-05 11:57:00,
2013-01-05 06:07:00,11.8,4.8,30.05,NNW,337,0.0,0.0,73,0.00,,,0.00,open2300-1.11,2013-01-05 12:07:00,
2013-01-05 06:17:00,12.0,5.0,30.04,NNW,337,0.0,0.0,73,0.00,,,0.00,open2300-1.11,2013-01-05 12:17:00,
2013-01-05 06:27:00,11.5,4.4,30.03,NNW,337,0.0,0.0,73,0.00,,,0.00,open2300-1.11,2013-01-05 12:27:00,
2013-01-05 06:37:00,11.7,4.6,30.03,NNW,337,0.0,0.0,73,0.00,,,0.00,open2300-1.11,2013-01-05 12:37:00,
2013-01-05 06:47:00,11.5,4.4,30.03,NNW,337,0.0,0.0,73,0.00,,,0.00,open2300-1.11,2013-01-05 12:47:00,
2013-01-05 06:57:00,10.9,3.9,30.03,NNW,337,0.0,0.0,73,0.00,,,0.00,open2300-1.11,2013-01-05 12:57:00,
2013-01-05 07:07:00,11.3,4.2,30.03,NNW,337,0.0,0.0,73,0.00,,,0.00,open2300-1.11,2013-01-05 13:07:00,
2013-01-05 07:17:00,11.3,4.2,30.03,NNW,337,0.0,0.0,73,0.00,,,0.00,open2300-1.11,2013-01-05 13:17:00,
2013-01-05 07:27:00,11.5,4.4,30.03,NNW,337,0.0,0.0,73,0.00,,,0.00,open2300-1.11,2013-01-05 13:27:00,
2013-01-05 07:37:00,11.3,4.2,30.03,NNW,337,0.0,0.0,73,0.00,,,0.00,open2300-1.11,2013-01-05 13:37:00,
2013-01-05 07:47:00,11.7,4.6,30.02,NNW,337,0.0,0.0,73,0.00,,,0.00,open2300-1.11,2013-01-05 13:47:00,
2013-01-05 07:57:00,12.6,5.8,30.01,NNW,337,0.0,0.0,74,0.00,,,0.00,open2300-1.11,2013-01-05 13:57:00,
2013-01-05 08:07:00,13.3,6.8,30.01,NNW,337,0.0,0.0,75,0.00,,,0.00,open2300-1.11,2013-01-05 14:07:00,
2013-01-05 08:17:00,13.8,7.3,30.01,NNW,337,0.0,0.0,75,0.00,,,0.00,open2300-1.11,2013-01-05 14:17:00,
2013-01-05 08:27:00,14.2,7.7,30.01,NNW,337,0.0,0.0,75,0.00,,,0.00,open2300-1.11,2013-01-05 14:27:00,
2013-01-05 08:37:00,14.5,8.0,30.02,NNW,337,0.0,0.0,75,0.00,,,0.00,open2300-1.11,2013-01-05 14:37:00,
2013-01-05 08:47:00,14.9,8.4,30.00,NNW,337,0.0,0.0,75,0.00,,,0.00,open2300-1.11,2013-01-05 14:47:00,
2013-01-05 08:57:00,15.3,8.7,30.00,NNW,337,0.0,0.0,75,0.00,,,0.00,open2300-1.11,2013-01-05 14:57:00,
2013-01-05 09:07:00,16.0,9.4,30.00,NNW,337,0.0,0.0,75,0.00,,,0.00,open2300-1.11,2013-01-05 15:07:00,
2013-01-05 09:17:00,16.5,10.2,30.00,NNW,337,0.0,0.0,76,0.00,,,0.00,open2300-1.11,2013-01-05 15:17:00,
2013-01-05 09:27:00,17.2,10.9,29.99,NNW,337,0.0,0.0,76,0.00,,,0.00,open2300-1.11,2013-01-05 15:27:00,
2013-01-05 09:37:00,17.4,10.8,29.98,NNW,337,0.0,0.0,75,0.00,,,0.00,open2300-1.11,2013-01-05 15:37:00,
2013-01-05 09:47:00,18.0,11.3,29.98,NNW,337,0.0,0.0,75,0.00,,,0.00,open2300-1.11,2013-01-05 15:47:00,
2013-01-05 09:57:00,18.3,11.6,29.97,NNW,337,0.0,0.0,75,0.00,,,0.00,open2300-1.11,2013-01-05 15:57:00,
2013-01-05 10:07:00,18.7,12.0,29.97,NNW,337,0.0,0.0,75,0.00,,,0.00,open2300-1.11,2013-01-05 16:07:00,
2013-01-05 10:17:00,19.2,12.5,29.97,NNW,337,0.0,0.0,75,0.00,,,0.00,open2300-1.11,2013-01-05 16:17:00,
2013-01-05 10:27:00,19.4,13.0,29.98,NNW,337,0.0,0.0,76,0.00,,,0.00,open2300-1.11,2013-01-05 16:27:00,
2013-01-05 10:37:00,19.9,13.2,29.97,NNW,337,0.0,0.0,75,0.00,,,0.00,open2300-1.11,2013-01-05 16:37:00,
2013-01-05 10:47:00,20.3,13.6,29.97,NNW,337,0.0,0.0,75,0.00,,,0.00,open2300-1.11,2013-01-05 16:47:00,
2013-01-05 10:57:00,20.8,14.1,29.97,NNW,337,0.0,0.0,75,0.00,,,0.00,open2300-1.11,2013-01-05 16:57:00,
2013-01-05 11:07:00,21.2,14.4,29.97,NNW,337,0.0,0.0,75,0.00,,,0.00,open2300-1.11,2013-01-05 17:07:00,
2013-01-05 11:17:00,21.7,15.0,29.96,NNW,337,0.0,0.0,75,0.00,,,0.00,open2300-1.11,2013-01-05 17:17:00,
2013-01-05 11:27:00,21.7,15.0,29.95,NNW,337,0.0,0.0,75,0.00,,,0.00,open2300-1.11,2013-01-05 17:27:00,
2013-01-05 11:37:00,22.1,15.0,29.95,NNW,337,0.0,0.0,74,0.00,,,0.00,open2300-1.11,2013-01-05 17:37:00,
2013-01-05 11:47:00,22.5,15.4,29.95,NNW,337,0.0,0.0,74,0.00,,,0.00,open2300-1.11,2013-01-05 17:47:00,
2013-01-05 11:57:00,22.6,15.6,29.93,NNW,337,0.0,0.0,74,0.00,,,0.00,open2300-1.11,2013-01-05 17:57:00,
2013-01-05 12:07:00,22.8,15.8,29.92,NNW,337,0.0,0.0,74,0.00,,,0.00,open2300-1.11,2013-01-05 18:07:00,
2013-01-05 12:17:00,23.5,16.5,29.92,NNW,337,0.0,0.0,74,0.00,,,0.00,open2300-1.11,2013-01-05 18:17:00,
2013-01-05 12:27:00,23.9,16.8,29.91,NNW,337,0.0,0.0,74,0.00,,,0.00,open2300-1.11,2013-01-05 18:27:00,
2013-01-05 12:37:00,24.1,17.0,29.90,NNW,337,0.0,0.0,74,0.00,,,0.00,open2300-1.11,2013-01-05 18:37:00,
2013-01-05 12:47:00,24.4,17.0,29.90,NNW,337,0.0,0.0,73,0.00,,,0.00,open2300-1.11,2013-01-05 18:47:00,
2013-01-05 12:57:00,25.0,17.5,29.89,NNW,337,0.0,0.0,73,0.00,,,0.00,open2300-1.11,2013-01-05 18:57:00,
2013-01-05 13:07:00,25.3,17.8,29.89,NNW,337,0.0,0.0,73,0.00,,,0.00,open2300-1.11,2013-01-05 19:07:00,
2013-01-05 13:17:00,25.5,17.7,29.88,NNW,337,0.0,0.0,72,0.00,,,0.00,open2300-1.11,2013-01-05 19:17:00,
2013-01-05 13:27:00,25.7,17.9,29.87,NNW,337,0.0,0.0,72,0.00,,,0.00,open2300-1.11,2013-01-05 19:27:00,
2013-01-05 13:37:00,25.7,17.5,29.87,NNW,337,0.0,0.0,71,0.00,,,0.00,open2300-1.11,2013-01-05 19:37:00,
2013-01-05 13:47:00,25.9,17.7,29.86,NNW,337,0.0,0.0,71,0.00,,,0.00,open2300-1.11,2013-01-05 19:47:00,
2013-01-05 13:57:00,25.7,17.2,29.86,NNW,337,0.0,0.0,70,0.00,,,0.00,open2300-1.11,2013-01-05 19:57:00,
2013-01-05 14:07:00,25.9,17.4,29.86,NNW,337,0.0,0.0,70,0.00,,,0.00,open2300-1.11,2013-01-05 20:07:00,
2013-01-05 14:17:00,25.9,17.4,29.87,NNW,337,0.0,0.0,70,0.00,,,0.00,open2300-1.11,2013-01-05 20:17:00,
2013-01-05 14:27:00,26.2,17.8,29.87,NNW,337,0.0,0.0,70,0.00,,,0.00,open2300-1.11,2013-01-05 20:27:00,
2013-01-05 14:37:00,26.2,17.8,29.87,NNW,337,0.0,0.0,70,0.00,,,0.00,open2300-1.11,2013-01-05 20:37:00,
2013-01-05 14:47:00,26.2,17.8,29.87,NNW,337,0.0,0.0,70,0.00,,,0.00,open2300-1.11,2013-01-05 20:47:00,
2013-01-05 14:57:00,26.4,18.0,29.87,NNW,337,0.0,0.0,70,0.00,,,0.00,open2300-1.11,2013-01-05 20:57:00,
2013-01-05 15:07:00,26.6,18.1,29.86,NNW,337,0.0,0.0,70,0.00,,,0.00,open2300-1.11,2013-01-05 21:07:00,
2013-01-05 15:17:00,26.6,17.8,29.87,NNW,337,0.0,0.0,69,0.00,,,0.00,open2300-1.11,2013-01-05 21:17:00,
2013-01-05 15:27:00,26.8,18.0,29.86,NNW,337,0.0,0.0,69,0.00,,,0.00,open2300-1.11,2013-01-05 21:27:00,
2013-01-05 15:37:00,26.6,17.8,29.86,NNW,337,0.0,0.0,69,0.00,,,0.00,open2300-1.11,2013-01-05 21:37:00,
2013-01-05 15:47:00,26.4,17.6,29.87,NNW,337,0.0,0.0,69,0.00,,,0.00,open2300-1.11,2013-01-05 21:47:00,
2013-01-05 15:57:00,26.4,17.6,29.86,NNW,337,0.0,0.0,69,0.00,,,0.00,open2300-1.11,2013-01-05 21:57:00,
2013-01-05 16:07:00,26.4,17.6,29.86,NNW,337,0.0,0.0,69,0.00,,,0.00,open2300-1.11,2013-01-05 22:07:00,
2013-01-05 16:17:00,26.4,17.6,29.86,NNW,337,0.0,0.0,69,0.00,,,0.00,open2300-1.11,2013-01-05 22:17:00,
2013-01-05 16:27:00,26.2,17.4,29.85,NNW,337,0.0,0.0,69,0.00,,,0.00,open2300-1.11,2013-01-05 22:27:00,
2013-01-05 16:37:00,26.2,17.4,29.85,NNW,337,0.0,0.0,69,0.00,,,0.00,open2300-1.11,2013-01-05 22:37:00,
2013-01-05 16:47:00,25.9,17.1,29.87,NNW,337,0.0,0.0,69,0.00,,,0.00,open2300-1.11,2013-01-05 22:47:00,
2013-01-05 16:57:00,25.7,16.9,29.86,NNW,337,0.0,0.0,69,0.00,,,0.00,open2300-1.11,2013-01-05 22:57:00,
2013-01-05 17:07:00,25.5,16.7,29.86,NNW,337,0.0,0.0,69,0.00,,,0.00,open2300-1.11,2013-01-05 23:07:00,
2013-01-05 17:17:00,25.2,16.3,29.86,NNW,337,0.0,0.0,69,0.00,,,0.00,open2300-1.11,2013-01-05 23:17:00,
2013-01-05 17:27:00,24.6,15.8,29.87,NNW,337,0.0,0.0,69,0.00,,,0.00,open2300-1.11,2013-01-05 23:27:00,
2013-01-05 17:37:00,24.3,15.5,29.87,NNW,337,0.0,0.0,69,0.00,,,0.00,open2300-1.11,2013-01-05 23:37:00,
2013-01-05 17:47:00,23.9,15.2,29.87,NNW,337,0.0,0.0,69,0.00,,,0.00,open2300-1.11,2013-01-05 23:47:00,
2013-01-05 17:57:00,23.4,14.7,29.88,NNW,337,0.0,0.0,69,0.00,,,0.00,open2300-1.11,2013-01-05 23:57:00,
2013-01-05 18:07:00,23.2,14.5,29.88,NNW,337,0.0,0.0,69,0.00,,,0.00,open2300-1.11,2013-01-06 00:07:00,
2013-01-05 18:17:00,22.6,14.4,29.89,NNW,337,0.0,0.0,70,0.00,,,0.00,open2300-1.11,2013-01-06 00:17:00,
2013-01-05 18:27:00,21.9,13.6,29.89,NNW,337,0.0,0.0,70,0.00,,,0.00,open2300-1.11,2013-01-06 00:27:00,
2013-01-05 18:37:00,21.7,13.5,29.88,NNW,337,0.0,0.0,70,0.00,,,0.00,open2300-1.11,2013-01-06 00:37:00,
2013-01-05 18:47:00,21.6,13.3,29.88,NNW,337,0.0,0.0,70,0.00,,,0.00,open2300-1.11,2013-01-06 00:47:00,
2013-01-05 18:57:00,21.2,12.9,29.89,NNW,337,0.0,0.0,70,0.00,,,0.00,open2300-1.11,2013-01-06 00:57:00,
2013-01-05 19:07:00,20.8,12.9,29.90,NNW,337,0.0,0.0,71,0.00,,,0.00,open2300-1.11,2013-01-06 01:07:00,
2013-01-05 19:17:00,20.8,12.9,29.90,NNW,337,0.0,0.0,71,0.00,,,0.00,open2300-1.11,2013-01-06 01:17:00,
2013-01-05 19:27:00,20.5,12.8,29.90,NNW,337,0.0,0.0,72,0.00,,,0.00,open2300-1.11,2013-01-06 01:27:00,
2013-01-05 19:37:00,20.5,12.8,29.90,NNW,337,0.0,0.0,72,0.00,,,0.00,open2300-1.11,2013-01-06 01:37:00,
2013-01-05 19:47:00,20.5,12.8,29.91,NNW,337,0.0,0.0,72,0.00,,,0.00,open2300-1.11,2013-01-06 01:47:00,
2013-01-05 19:57:00,20.1,12.4,29.91,NNW,337,0.0,0.0,72,0.00,,,0.00,open2300-1.11,2013-01-06 01:57:00,
2013-01-05 20:07:00,19.9,12.6,29.91,NNW,337,0.0,0.0,73,0.00,,,0.00,open2300-1.11,2013-01-06 02:07:00,
2013-01-05 20:17:00,20.1,12.8,29.91,NNW,337,0.0,0.0,73,0.00,,,0.00,open2300-1.11,2013-01-06 02:17:00,
2013-01-05 20:27:00,20.1,12.8,29.91,NNW,337,0.0,0.0,73,0.00,,,0.00,open2300-1.11,2013-01-06 02:27:00,
2013-01-05 20:37:00,19.9,12.6,29.91,NNW,337,0.0,0.0,73,0.00,,,0.00,open2300-1.11,2013-01-06 02:37:00,
2013-01-05 20:47:00,19.8,12.4,29.90,NNW,337,0.0,0.0,73,0.00,,,0.00,open2300-1.11,2013-01-06 02:47:00,
2013-01-05 20:57:00,19.6,12.2,29.90,NNW,337,0.0,0.0,73,0.00,,,0.00,open2300-1.11,2013-01-06 02:57:00,
2013-01-05 21:07:00,19.6,12.2,29.91,NNW,337,0.0,0.0,73,0.00,,,0.00,open2300-1.11,2013-01-06 03:07:00,
2013-01-05 21:17:00,19.2,11.9,29.92,NNW,337,0.0,0.0,73,0.00,,,0.00,open2300-1.11,2013-01-06 03:17:00,
2013-01-05 21:27:00,19.2,11.9,29.92,NNW,337,0.0,0.0,73,0.00,,,0.00,open2300-1.11,2013-01-06 03:27:00,
2013-01-05 21:37:00,18.9,11.5,29.93,NNW,337,0.0,0.0,73,0.00,,,0.00,open2300-1.11,2013-01-06 03:37:00,
2013-01-05 21:47:00,18.7,11.4,29.93,NNW,337,0.0,0.0,73,0.00,,,0.00,open2300-1.11,2013-01-06 03:47:00,
2013-01-05 21:57:00,18.5,11.2,29.93,NNW,337,0.0,0.0,73,0.00,,,0.00,open2300-1.11,2013-01-06 03:57:00,
2013-01-05 22:07:00,18.5,11.2,29.93,NNW,337,0.0,0.0,73,0.00,,,0.00,open2300-1.11,2013-01-06 04:07:00,
2013-01-05 22:12:00,18.5,11.2,29.93,NNW,337,14.1,114.1,73,0.00,,,0.00,open2300-1.11,2013-01-06 04:12:00,
2013-01-05 22:27:00,18.3,11.0,29.93,NNW,337,0.0,0.0,73,0.00,,,0.00,open2300-1.11,2013-01-06 04:27:00,
2013-01-05 22:37:00,18.5,11.2,29.93,NNW,337,0.0,0.0,73,0.00,,,0.00,open2300-1.11,2013-01-06 04:37:00,
2013-01-05 22:47:00,18.7,11.4,29.92,NNW,337,0.0,0.0,73,0.00,,,0.00,open2300-1.11,2013-01-06 04:47:00,
2013-01-05 22:57:00,18.3,11.0,29.92,NNW,337,0.0,0.0,73,0.00,,,0.00,open2300-1.11,2013-01-06 04:57:00,
2013-01-05 23:07:00,18.3,11.0,29.93,NNW,337,0.0,0.0,73,0.00,,,0.00,open2300-1.11,2013-01-06 05:07:00,
2013-01-05 23:17:00,18.7,11.4,29.94,NNW,337,0.0,0.0,73,0.00,,,0.00,open2300-1.11,2013-01-06 05:17:00,
2013-01-05 23:27:00,18.9,11.5,29.94,NNW,337,0.0,0.0,73,0.00,,,0.00,open2300-1.11,2013-01-06 05:27:00,
2013-01-05 23:37:00,19.2,11.9,29.94,NNW,337,0.0,0.0,73,0.00,,,0.00,open2300-1.11,2013-01-06 05:37:00,
2013-01-05 23:47:00,19.2,11.9,29.95,NNW,337,0.0,0.0,73,0.00,,,0.00,open2300-1.11,2013-01-06 05:47:00,
2013-01-05 23:57:00,19.2,11.9,29.95,NNW,337,0.0,0.0,73,0.00,,,0.00,open2300-1.11,2013-01-06 05:57:00,